Weather History for Columbus, OH

Change the Weather History Date:

Monday, July 1, 2013

  Actual Average Record
Temperature  
Mean Temperature 76 °F 75 °F  
Max Temperature 84 °F 85 °F 98 °F (1953)
Min Temperature 67 °F 65 °F 44 °F (1988)
Degree Days  
Heating Degree Days 0 0  
Month to date heating degree days 0 0  
Since 1 June heating degree days 6 19  
Since 1 July heating degree days 0 0  
Cooling Degree Days 11 10  
Month to date cooling degree days 11 10  
Year to date cooling degree days 410 308  
Since 1 June cooling degree days 249 226  
Growing Degree Days 25 (Base 50)    
Moisture  
Dew Point 64 °F    
Average Humidity 69    
Maximum Humidity 90    
Minimum Humidity 47    
Precipitation  
Precipitation T in 0.14 in 2.89 in (1993)
Month to date precipitation T 0.14  
Year to date precipitation 16.93 19.72  
Snow  
Snow 0.00 in 0.00 in 0.00 in ()
Month to date snowfall 0.0 0.0  
Since 1 June snowfall 0.0 0.0  
Since 1 July snowfall 0.0 0.0  
Snow Depth 0.00 in    
Sea Level Pressure  
Sea Level Pressure 29.87 in    
Wind  
Wind Speed 7 mph (NE)    
Max Wind Speed 20 mph    
Max Gust Speed 24 mph    
Visibility 10 miles    
Events Rain    
T = Trace of Precipitation, MM = Missing Value Source: NWS Daily Summary

Daily Weather History Graph

Daily Weather History Graph

Search for Another Location

Airport:

Trip Planner

Search our weather history database for the weather conditions in past years. The results will help you decide how hot, cold, wet, or windy it might be!

Date:

Astronomy

Jul. 01, 2013 Rise Set
Actual Time 6:06 AM EDT 9:04 PM EDT
Civil Twilight 5:33 AM EDT 9:36 PM EDT
Nautical Twilight 4:52 AM EDT 10:18 PM EDT
Astronomical Twilight 4:04 AM EDT 11:06 PM EDT
Moon 1:35 AM EDT (7/1) 3:18 PM EDT (7/1)
Length of Visible Light 16h 02m
Length of Day
14h 57m
Waning Crescent, 35% of the Moon is Illuminated
Jul 1
Waning Crescent
Jul 8
New
Jul 15
First Quarter
Jul 22
Full
Jul 29
Last Quarter

Hourly Weather History & Observations

Time (EDT) Temp. Heat Index Dew Point Humidity Pressure Visibility Wind Dir Wind Speed Gust Speed Precip Events Conditions
12:51 AM 69.1 °F - 63.0 °F 81% 29.83 in 10.0 mi North 6.9 mph - N/A   Overcast
1:51 AM 68.0 °F - 63.0 °F 84% 29.83 in 10.0 mi NNE 5.8 mph - N/A   Overcast
2:51 AM 68.0 °F - 63.0 °F 84% 29.82 in 10.0 mi North 5.8 mph - 0.00 in   Overcast
3:51 AM 66.9 °F - 63.0 °F 87% 29.83 in 10.0 mi North 4.6 mph - N/A   Overcast
4:51 AM 66.9 °F - 62.1 °F 84% 29.83 in 10.0 mi NNE 5.8 mph - N/A   Overcast
5:51 AM 66.9 °F - 62.1 °F 84% 29.85 in 10.0 mi North 6.9 mph - N/A   Overcast
6:40 AM 66.2 °F - 62.6 °F 88% 29.86 in 10.0 mi Calm Calm - N/A   Overcast
6:51 AM 66.9 °F - 63.0 °F 87% 29.85 in 10.0 mi NNE 5.8 mph - N/A   Overcast
7:51 AM 66.9 °F - 63.0 °F 87% 29.85 in 10.0 mi NE 9.2 mph - N/A   Overcast
8:48 AM 68.0 °F - 64.4 °F 88% 29.88 in 10.0 mi NE 6.9 mph - 0.00 in   Overcast
8:51 AM 68.0 °F - 64.0 °F 87% 29.87 in 10.0 mi ENE 6.9 mph - 0.00 in   Overcast
9:51 AM 73.0 °F - 64.9 °F 76% 29.87 in 10.0 mi East 10.4 mph - N/A   Mostly Cloudy
10:40 AM 73.4 °F - 64.4 °F 73% 29.89 in 10.0 mi East 5.8 mph - N/A   Mostly Cloudy
10:51 AM 75.0 °F - 64.0 °F 69% 29.88 in 10.0 mi East 5.8 mph - N/A   Mostly Cloudy
11:10 AM 75.2 °F - 64.4 °F 69% 29.90 in 10.0 mi Variable 4.6 mph - N/A   Mostly Cloudy
11:51 AM 77.0 °F - 64.0 °F 64% 29.88 in 10.0 mi Variable 4.6 mph - N/A   Scattered Clouds
12:51 PM 77.0 °F - 64.0 °F 64% 29.88 in 10.0 mi Variable 6.9 mph - N/A   Overcast
1:51 PM 81.0 °F 81.9 °F 62.1 °F 52% 29.87 in 10.0 mi Variable 3.5 mph - N/A   Mostly Cloudy
2:51 PM 82.0 °F 82.4 °F 60.1 °F 47% 29.86 in 10.0 mi Calm Calm - N/A   Scattered Clouds
3:51 PM 81.0 °F 81.7 °F 61.0 °F 50% 29.86 in 10.0 mi North 5.8 mph - N/A   Mostly Cloudy
4:51 PM 75.9 °F - 62.1 °F 62% 29.88 in 10.0 mi NNE 12.7 mph 18.4 mph N/A   Overcast
5:51 PM 77.0 °F - 64.0 °F 64% 29.87 in 10.0 mi NNE 9.2 mph - N/A   Overcast
6:51 PM 75.9 °F - 64.9 °F 69% 29.88 in 10.0 mi NE 9.2 mph - N/A   Overcast
7:51 PM 75.9 °F - 64.9 °F 69% 29.91 in 10.0 mi North 8.1 mph - N/A   Overcast
8:51 PM 73.0 °F - 68.0 °F 84% 29.91 in 6.0 mi North 6.9 mph - 0.00 in Rain Light Rain
9:51 PM 72.0 °F - 68.0 °F 87% 29.89 in 6.0 mi NNE 11.5 mph - 0.00 in Rain Light Rain
10:51 PM 70.0 °F - 66.0 °F 87% 29.91 in 10.0 mi East 8.1 mph - 0.00 in   Mostly Cloudy
11:51 PM 70.0 °F - 64.9 °F 84% 29.90 in 10.0 mi NE 8.1 mph - N/A   Mostly Cloudy